Location: B?jaj?g
(11.7167°N, 92.6667°E)
Time: 11:46:17
(UTC+00:00)

Cosmos 1238 Rocket - Pass Details

Date: 18 September 2020
Orbit: 374 x 1028 km, 83.0° (Epoch: 23 October)

Event Time Altitude Azimuth Distance (km) Brightness Sun altitude
Rises 22:16:49 0° 343° (NNW) 3,681 6.9 -20.8°
Reaches altitude 10° 22:19:39 10° 335° (NNW) 2,670 6.1 -20.1°
Maximum altitude 22:25:12 36° 271° (W) 1,328 4.2 -18.8°
Drops below altitude 10° 22:30:02 10° 205° (SSW) 2,315 5.7 -17.6°
Sets 22:32:22 0° 196° (SSW) 3,137 6.5 -17.0°
